Location: Auttagershofen
(48.1940°N, 10.0237°E)
Time: 23:31:12
(UTC+00:00)

Meteor 1-16 Rocket - Pass Details

Date: 18 January 2026
Orbit: 789 x 905 km, 81.2° (Epoch: 15 February)

Event Time Altitude Azimuth Distance (km) Brightness Sun altitude
Rises 06:12:02 0° 185° (S) 3,362 7.6 -8.5°
Reaches altitude 10° 06:14:27 10° 184° (S) 2,417 6.8 -8.2°
Maximum altitude 06:19:53 77° 99° (E) 834 4.4 -7.3°
Drops below altitude 10° 06:25:14 10° 14° (NNE) 2,377 6.5 -6.5°
Sets 06:27:36 0° 13° (NNE) 3,304 7.2 -6.1°
